Location: Quaker Farms
(41.4276°N, 73.1557°W)
Time: 01:55:43
(UTC+00:00)

Altair - Pass Details

Date: 19 June 2021
Orbit: 1501 x 1682 km, 47.2° (Epoch: 23 July)

Event Time Altitude Azimuth Distance (km) Brightness Sun altitude
Rises 15:32:42 0° 183° (S) 4,634 10.2 65.2°
Reaches altitude 10° 15:36:49 10° 166° (SSE) 3,675 10.0 65.8°
Maximum altitude 15:42:49 19° 125° (SE) 3,039 9.8 66.6°
Drops below altitude 10° 15:48:56 10° 84° (E) 3,766 9.9 67.4°
Sets 15:53:11 0° 69° (ENE) 4,788 10.2 68.0°
